User: anonymous   Login
Location: Bagnara
(41.0500°N, 14.7833°E)
Time: 07:20:22
(UTC+00:00)
Language:

YAOGAN 11 - Orbit

View from above orbital plane
View from above orbital plane
View from above satellite
View from above satellite

Ground track
Ground track

The orbit data is extracted from the following two-line orbital elements,

1 37165U 10047A   21265.63150559  .00000102  00000-0  22693-4 0  9993
2 37165  98.3191  30.2505 0038919   8.5602 351.6262 14.76365542592612
Epoch (UTC): 22 September 2021 15:09:22
Eccentricity: 0.0038919
inclination: 98.3191°
perigee height: 613 km
apogee height: 668 km
right ascension of ascending node: 30.2505°
argument of perigee: 8.5602°
revolutions per day: 14.76365542
mean anomaly at epoch: 351.6262°
orbit number at epoch: 59261

The dashed part of the orbit path shows where the satellite is in the earth's shadow,  

DLR